Location: State Line Observation Field
(36.5320°N, 77.5360°W)
Time: 10:28:52
(UTC-04:00)

Envisat - Pass Details

Date: 05 March 2021
Orbit: 764 x 766 km, 98.1° (Epoch: 13 April)

Event Time Altitude Azimuth Distance (km) Brightness Sun altitude
Rises 05:27:02 0° 17° (NNE) 3,237 6.5 -14.4°
Reaches altitude 10° 05:29:25 10° 22° (NNE) 2,307 5.8 -14.0°
Maximum altitude 05:34:23 54° 100° (E) 923 3.8 -13.0°
Drops below altitude 10° 05:39:20 10° 178° (S) 2,291 5.5 -12.0°
Sets 05:41:40 0° 182° (S) 3,212 6.2 -11.5°
